DW6996 Weather Reports


Display with metric or nautical units.
time (UTC)temp
F
wind
direction
speed
MPH
gust
MPH
rain 1hr
in
rain 24hr
in
rain mn
in
humidity
%
barometer
mb
20260510173045 96 180 0.0 10.0 0.00 0.00 0.00 12 1010.1
20260510172538 95 213 0.0 10.0 0.00 0.00 0.00 12 1010.1
20260510172033 95 198 0.0 0.0 0.00 0.00 0.00 12 1010.1
20260510171756 95 237 0.0 0.0 0.00 0.00 0.00 12 1010.0
20260510171255 95 232 0.0 0.0 0.00 0.00 0.00 12 1010.0
20260510170533 94 188 0.0 0.0 0.00 0.00 0.00 12 1010.1
20260510170030 94 227 0.0 0.0 0.00 0.00 0.00 13 1010.0
20260510165529 94 181 0.0 6.0 0.00 0.00 0.00 13 1009.9
20260510165029 93 178 0.0 6.0 0.00 0.00 0.00 13 1010.0
20260510164528 92 201 0.0 0.0 0.00 0.00 0.00 13 1009.9
20260510164030 92 228 0.0 0.0 0.00 0.00 0.00 14 1009.9
20260510163529 92 237 0.0 0.0 0.00 0.00 0.00 14 1009.9
20260510163251 91 248 0.0 0.0 0.00 0.00 0.00 14 1009.9
20260510162529 91 225 0.0 0.0 0.00 0.00 0.00 13 1009.8
20260510162030 91 223 0.0 0.0 0.00 0.00 0.00 14 1009.9
20260510161748 91 218 0.0 0.0 0.00 0.00 0.00 14 1009.9
20260510161029 90 211 0.0 0.0 0.00 0.00 0.00 14 1009.9
20260510160755 90 219 0.0 0.0 0.00 0.00 0.00 14 1009.8
20260510160030 90 222 0.0 3.0 0.00 0.00 0.00 15 1009.8
20260510155529 89 222 0.0 3.0 0.00 0.00 0.00 15 1009.8
20260510155254 89 224 0.0 0.0 0.00 0.00 0.00 15 1009.8
20260510154520 89 224 0.0 0.0 0.00 0.00 0.00 15 1009.8
20260510154016 89 224 0.0 0.0 0.00 0.00 0.00 15 1009.8
20260510153515 89 268 0.0 0.0 0.00 0.00 0.00 16 1009.8
20260510153013 88 270 0.0 0.0 0.00 0.00 0.00 17 1009.7
20260510152511 87 270 0.0 0.0 0.00 0.00 0.00 17 1009.8
20260510152009 86 270 0.0 0.0 0.00 0.00 0.00 17 1009.8
20260510151508 85 270 0.0 0.0 0.00 0.00 0.00 18 1009.8
20260510151006 84 270 0.0 0.0 0.00 0.00 0.00 18 1009.8
20260510150505 83 270 0.0 0.0 0.00 0.00 0.00 18 1009.8
20260510150006 83 270 0.0 0.0 0.00 0.00 0.00 19 1009.7
20260510145503 82 270 0.0 0.0 0.00 0.00 0.00 19 1009.7
20260510145003 82 270 0.0 0.0 0.00 0.00 0.00 20 1009.6
20260510144502 81 270 0.0 0.0 0.00 0.00 0.00 20 1009.6
20260510144002 80 270 0.0 0.0 0.00 0.00 0.00 21 1009.6
20260510143722 80 266 0.0 0.0 0.00 0.00 0.00 20 1009.6
20260510143003 80 266 0.0 0.0 0.00 0.00 0.00 20 1009.5
20260510142502 79 266 0.0 0.0 0.00 0.00 0.00 21 1009.4
20260510142003 79 266 0.0 0.0 0.00 0.00 0.00 20 1009.4
20260510141503 79 266 0.0 0.0 0.00 0.00 0.00 19 1009.3
20260510141003 79 265 0.0 3.0 0.00 0.00 0.00 19 1009.3
20260510140502 78 265 0.0 3.0 0.00 0.00 0.00 19 1009.3
20260510140003 78 266 0.0 0.0 0.00 0.00 0.00 18 1009.1
20260510135502 78 266 0.0 2.0 0.00 0.00 0.00 19 1009.0
20260510135002 77 266 0.0 2.0 0.00 0.00 0.00 20 1009.0
20260510134728 78 266 0.0 0.0 0.00 0.00 0.00 19 1009.0
20260510134001 78 275 0.0 0.0 0.00 0.00 0.00 19 1008.9
20260510133501 79 355 0.0 0.0 0.00 0.00 0.00 18 1008.9
20260510133001 79 342 0.0 3.0 0.00 0.00 0.00 17 1008.8
20260510132500 79 84 0.0 3.0 0.00 0.00 0.00 16 1008.7
20260510132002 78 90 2.0 13.0 0.00 0.00 0.00 16 1008.7
20260510131500 78 63 2.0 13.0 0.00 0.00 0.00 18 1008.7
20260510131001 78 72 1.0 13.0 0.00 0.00 0.00 17 1008.7
20260510130500 77 63 1.0 13.0 0.00 0.00 0.00 17 1008.7
20260510130235 76 9 0.0 1.0 0.00 0.00 0.00 17 1008.7
20260510125501 76 25 0.0 1.0 0.00 0.00 0.00 17 1008.6
20260510125224 76 344 0.0 0.0 0.00 0.00 0.00 17 1008.5
20260510124453 76 154 0.0 0.0 0.00 0.00 0.00 16 1008.4
20260510123948 76 168 0.0 0.0 0.00 0.00 0.00 16 1008.4
20260510123442 76 168 0.0 0.0 0.00 0.00 0.00 16 1008.3
20260510122937 76 168 0.0 0.0 0.00 0.00 0.00 16 1008.2
20260510122436 76 168 0.0 0.0 0.00 0.00 0.00 16 1008.2
20260510122428 76 168 0.0 0.0 0.00 0.00 0.00 16 1008.1
20260510121436 77 167 0.0 0.0 0.00 0.00 0.00 16 1008.1
20260510120936 77 167 0.0 0.0 0.00 0.00 0.00 15 1008.0
20260510120436 77 168 0.0 0.0 0.00 0.00 0.00 15 1008.0
20260510120159 77 167 0.0 0.0 0.00 0.00 0.00 15 1007.8
20260510115434 78 168 0.0 0.0 0.00 0.00 0.00 15 1008.0
20260510114934 78 168 0.0 0.0 0.00 0.00 0.00 14 1008.0
20260510114433 79 168 0.0 0.0 0.00 0.00 0.00 14 1008.0
20260510114155 79 168 0.0 0.0 0.00 0.00 0.00 14 1007.8
20260510113431 79 168 0.0 0.0 0.00 0.00 0.00 14 1008.0
20260510112930 80 168 0.0 0.0 0.00 0.00 0.00 14 1007.8
20260510112651 80 168 0.0 0.0 0.00 0.00 0.00 14 1008.0
20260510111930 80 167 0.0 0.0 0.00 0.00 0.00 13 1008.0
20260510111910 81 168 0.0 0.0 0.00 0.00 0.00 13 1008.1
20260510110930 82 168 0.0 0.0 0.00 0.00 0.00 13 1008.1
20260510110429 82 165 0.0 0.0 0.00 0.00 0.00 12 1008.1
20260510105929 82 171 0.0 0.0 0.00 0.00 0.00 12 1008.0
20260510105425 82 178 0.0 0.0 0.00 0.00 0.00 13 1007.8
20260510104918 82 178 0.0 0.0 0.00 0.00 0.00 13 1007.7
20260510104412 82 178 0.0 0.0 0.00 0.00 0.00 13 1007.6
20260510103914 82 178 0.0 0.0 0.00 0.00 0.00 12 1007.6
20260510103410 82 178 0.0 0.0 0.00 0.00 0.00 12 1007.6
20260510102908 83 178 0.0 0.0 0.00 0.00 0.00 12 1007.6
20260510102408 82 178 0.0 0.0 0.00 0.00 0.00 12 1007.5
20260510101908 82 178 0.0 0.0 0.00 0.00 0.00 12 1007.5
20260510101406 82 178 0.0 0.0 0.00 0.00 0.00 13 1007.5
20260510100903 82 178 0.0 0.0 0.00 0.00 0.00 13 1007.5
20260510100401 82 178 0.0 0.0 0.00 0.00 0.00 13 1007.5
20260510100121 81 178 0.0 0.0 0.00 0.00 0.00 14 1007.5
20260510095402 81 178 0.0 0.0 0.00 0.00 0.00 15 1007.4
20260510094901 81 178 0.0 0.0 0.00 0.00 0.00 15 1007.4
20260510094402 81 178 0.0 0.0 0.00 0.00 0.00 15 1007.4
20260510093901 82 178 0.0 0.0 0.00 0.00 0.00 15 1007.4
20260510093402 82 178 0.0 0.0 0.00 0.00 0.00 15 1007.3
20260510092901 82 178 0.0 0.0 0.00 0.00 0.00 14 1007.3
20260510092401 82 178 0.0 0.0 0.00 0.00 0.00 14 1007.3
20260510091901 83 178 0.0 0.0 0.00 0.00 0.00 14 1007.3
20260510091401 85 178 0.0 0.0 0.00 0.00 0.00 13 1007.2
20260510090900 86 187 0.0 0.0 0.00 0.00 0.00 11 1007.2
20260510090354 87 12 0.0 0.0 0.00 0.00 0.00 10 1007.1
20260510085850 87 11 0.0 0.0 0.00 0.00 0.00 10 1007.0
20260510085608 87 12 0.0 0.0 0.00 0.00 0.00 10 1006.9
20260510084846 87 5 0.0 0.0 0.00 0.00 0.00 10 1006.9
20260510084345 87 9 0.0 0.0 0.00 0.00 0.00 10 1006.9
20260510083846 87 12 0.0 0.0 0.00 0.00 0.00 10 1006.9
20260510083346 87 11 0.0 0.0 0.00 0.00 0.00 10 1006.8
20260510082846 87 9 0.0 0.0 0.00 0.00 0.00 11 1006.9
20260510082344 87 14 0.0 0.0 0.00 0.00 0.00 11 1006.9
20260510081841 87 26 0.0 0.0 0.00 0.00 0.00 11 1006.9
20260510081342 87 28 0.0 0.0 0.00 0.00 0.00 11 1006.9
20260510081059 87 24 0.0 0.0 0.00 0.00 0.00 11 1006.9
20260510080339 86 22 0.0 0.0 0.00 0.00 0.00 11 1007.0
20260510075837 86 16 0.0 0.0 0.00 0.00 0.00 12 1007.0
20260510075336 86 15 0.0 0.0 0.00 0.00 0.00 12 1007.0
20260510075057 86 0 0.0 0.0 0.00 0.00 0.00 12 1007.1
20260510074335 86 355 0.0 0.0 0.00 0.00 0.00 12 1007.1
20260510074042 86 28 0.0 0.0 0.00 0.00 0.00 12 1007.1
20260510074032 86 19 0.0 0.0 0.00 0.00 0.00 12 1007.0
20260510072834 87 5 0.0 0.0 0.00 0.00 0.00 12 1007.1
20260510072333 87 327 0.0 0.0 0.00 0.00 0.00 12 1007.0
20260510071833 88 327 0.0 0.0 0.00 0.00 0.00 12 1007.0
20260510071815 88 327 0.0 0.0 0.00 0.00 0.00 12 1007.0
20260510070833 88 327 0.0 0.0 0.00 0.00 0.00 12 1007.1
20260510070558 88 327 0.0 0.0 0.00 0.00 0.00 12 1007.0
20260510065832 88 327 0.0 0.0 0.00 0.00 0.00 12 1007.0
20260510065331 89 327 0.0 0.0 0.00 0.00 0.00 12 1006.9
20260510064829 89 327 0.0 0.0 0.00 0.00 0.00 12 1006.9
20260510064329 89 327 0.0 0.0 0.00 0.00 0.00 12 1006.9
20260510063828 89 327 0.0 0.0 0.00 0.00 0.00 12 1006.9
20260510063330 89 327 0.0 0.0 0.00 0.00 0.00 12 1006.9
20260510062828 89 327 0.0 0.0 0.00 0.00 0.00 12 1006.8
20260510062329 89 327 0.0 0.0 0.00 0.00 0.00 12 1006.8
20260510061829 89 327 0.0 0.0 0.00 0.00 0.00 12 1006.7
20260510061330 89 327 0.0 0.0 0.00 0.00 0.00 12 1006.7
20260510060828 89 325 0.0 0.0 0.00 0.00 0.00 12 1006.7
20260510060331 89 325 0.0 0.0 0.00 0.00 0.00 12 1006.6
20260510055829 89 325 0.0 0.0 0.00 0.00 0.00 12 1006.6
20260510055328 89 325 0.0 0.0 0.00 0.00 0.00 12 1006.6
20260510054829 89 325 0.0 0.0 0.00 0.00 0.00 12 1006.6
20260510054329 89 241 0.0 0.0 0.00 0.00 0.00 12 1006.6
20260510054051 89 240 0.0 0.0 0.00 0.00 0.00 12 1006.6
20260510053329 89 240 0.0 0.0 0.00 0.00 0.00 12 1006.6
20260510052830 89 240 0.0 0.0 0.00 0.00 0.00 12 1006.5
20260510052330 90 240 0.0 0.0 0.00 0.00 0.00 12 1006.5
20260510051829 90 240 0.0 0.0 0.00 0.00 0.00 12 1006.5
20260510051547 90 240 0.0 0.0 0.00 0.00 0.00 11 1006.4
20260510050828 90 240 0.0 0.0 0.00 0.00 0.00 11 1006.5
20260510050330 90 240 0.0 0.0 0.00 0.00 0.00 11 1006.5
20260510045830 90 236 0.0 0.0 0.00 0.00 0.00 11 1006.5
20260510045329 90 236 0.0 0.0 0.00 0.00 0.00 11 1006.5
20260510045058 90 232 0.0 0.0 0.00 0.00 0.00 11 1006.4
20260510044329 90 227 0.0 0.0 0.00 0.00 0.00 12 1006.4
20260510043830 91 227 0.0 0.0 0.00 0.00 0.00 11 1006.4
20260510043328 91 227 0.0 0.0 0.00 0.00 0.00 11 1006.3
20260510042829 91 227 0.0 0.0 0.00 0.00 0.00 11 1006.3
20260510042329 91 221 0.0 0.0 0.00 0.00 0.00 11 1006.2
20260510042309 91 219 0.0 0.0 0.00 0.00 0.00 11 1006.1
20260510041328 91 219 0.0 0.0 0.00 0.00 0.00 11 1006.1
20260510040829 92 213 0.0 0.0 0.00 0.00 0.00 11 1006.0
20260510040329 92 213 0.0 0.0 0.00 0.00 0.00 11 1006.0
20260510040049 92 218 0.0 0.0 0.00 0.00 0.00 11 1005.9
20260510035329 92 200 0.0 0.0 0.00 0.00 0.00 11 1005.9
20260510034829 92 199 0.0 0.0 0.00 0.00 0.00 11 1005.8
20260510034329 92 199 0.0 0.0 0.00 0.00 0.00 11 1005.7
20260510034050 92 199 0.0 0.0 0.00 0.00 0.00 11 1005.6
20260510033329 93 198 0.0 0.0 0.00 0.00 0.00 11 1005.5
20260510032829 93 216 0.0 0.0 0.00 0.00 0.00 11 1005.5
20260510032329 93 208 0.0 0.0 0.00 0.00 0.00 10 1005.4
20260510031829 93 208 0.0 0.0 0.00 0.00 0.00 10 1005.4
20260510031329 93 208 0.0 0.0 0.00 0.00 0.00 10 1005.2
20260510030829 94 209 0.0 0.0 0.00 0.00 0.00 10 1005.1
20260510030549 94 209 0.0 0.0 0.00 0.00 0.00 10 1005.1
20260510025829 94 209 0.0 0.0 0.00 0.00 0.00 10 1005.0
20260510025329 95 209 0.0 0.0 0.00 0.00 0.00 10 1004.9
20260510024829 95 209 0.0 0.0 0.00 0.00 0.00 10 1004.8
20260510024329 95 208 0.0 0.0 0.00 0.00 0.00 9 1004.8
20260510023829 96 209 0.0 0.0 0.00 0.00 0.00 9 1004.8
20260510023329 96 209 0.0 5.0 0.00 0.00 0.00 9 1004.7
20260510023316 96 208 1.0 5.0 0.00 0.00 0.00 9 1004.7
20260510022537 97 221 0.0 6.0 0.00 0.00 0.00 9 1004.7
20260510022518 97 213 1.0 6.0 0.00 0.00 0.00 9 1004.6
20260510021329 98 220 1.0 8.0 0.00 0.00 0.00 8 1004.6
20260510020829 98 213 1.0 8.0 0.00 0.00 0.00 8 1004.6
20260510020330 98 237 0.0 7.0 0.00 0.00 0.00 8 1004.6
20260510015831 98 227 0.0 1.0 0.00 0.00 0.00 8 1004.6
20260510015324 99 217 0.0 1.0 0.00 0.00 0.00 8 1004.5
20260510014818 99 218 0.0 1.0 0.00 0.00 0.00 8 1004.5
20260510014311 99 237 1.0 14.0 0.00 0.00 0.00 8 1004.5
20260510013810 99 227 2.0 14.0 0.00 0.00 0.00 8 1004.5
20260510013310 99 202 1.0 10.0 0.00 0.00 0.00 8 1004.5
20260510012810 100 245 1.0 15.0 0.00 0.00 0.00 8 1004.6
20260510012310 100 245 2.0 15.0 0.00 0.00 0.00 8 1004.5
20260510011808 100 229 1.0 17.0 0.00 0.00 0.00 8 1004.5
20260510011308 100 242 1.0 17.0 0.00 0.00 0.00 8 1004.6
20260510011034 100 232 4.0 19.0 0.00 0.00 0.00 8 1004.5
20260510010308 100 250 4.0 19.0 0.00 0.00 0.00 8 1004.5
20260510005808 101 248 3.0 16.0 0.00 0.00 0.00 9 1004.5
20260510005308 101 259 3.0 16.0 0.00 0.00 0.00 9 1004.6
20260510004808 101 215 2.0 16.0 0.00 0.00 0.00 8 1004.6
20260510004308 101 221 1.0 14.0 0.00 0.00 0.00 9 1004.6
20260510003805 101 235 1.0 14.0 0.00 0.00 0.00 9 1004.6
20260510003306 101 252 2.0 14.0 0.00 0.00 0.00 9 1004.5
20260510002806 101 231 3.0 17.0 0.00 0.00 0.00 9 1004.6
20260510002307 101 234 2.0 17.0 0.00 0.00 0.00 9 1004.6
20260510001806 102 211 1.0 11.0 0.00 0.00 0.00 9 1004.6
20260510001302 102 232 1.0 12.0 0.00 0.00 0.00 9 1004.7
20260510000801 102 182 1.0 13.0 0.00 0.00 0.00 9 1004.6
20260510000304 102 212 2.0 17.0 0.00 0.00 0.00 9 1004.6
20260509235802 102 239 4.0 19.0 0.00 0.00 0.00 9 1004.8
20260509235300 102 217 5.0 19.0 0.00 0.00 0.00 9 1004.7
20260509234801 102 207 5.0 15.0 0.00 0.00 0.00 9 1004.8
20260509234301 102 214 4.0 14.0 0.00 0.00 0.00 9 1004.8
20260509233801 102 199 1.0 14.0 0.00 0.00 0.00 9 1004.8
20260509233301 102 167 1.0 10.0 0.00 0.00 0.00 9 1004.8
20260509232802 102 248 1.0 14.0 0.00 0.00 0.00 9 1004.9
20260509232527 102 251 2.0 14.0 0.00 0.00 0.00 9 1005.0
20260509231801 102 202 2.0 15.0 0.00 0.00 0.00 8 1004.9
20260509231301 103 190 1.0 16.0 0.00 0.00 0.00 9 1004.9
20260509230801 103 194 2.0 18.0 0.00 0.00 0.00 9 1005.0
20260509230300 102 216 1.0 18.0 0.00 0.00 0.00 9 1005.1
20260509225801 102 246 1.0 17.0 0.00 0.00 0.00 9 1005.1
20260509225516 102 209 1.0 13.0 0.00 0.00 0.00 9 1005.2
20260509225502 103 235 1.0 13.0 0.00 0.00 0.00 9 1005.2
20260509224528 102 209 1.0 7.0 0.00 0.00 0.00 9 1005.4
20260509223803 102 191 2.0 15.0 0.00 0.00 0.00 8 1005.4
20260509223300 103 223 2.0 15.0 0.00 0.00 0.00 9 1005.5
20260509222802 103 218 1.0 18.0 0.00 0.00 0.00 9 1005.5
20260509222531 103 246 1.0 18.0 0.00 0.00 0.00 9 1005.7
20260509221801 102 215 0.0 6.0 0.00 0.00 0.00 8 1005.6
20260509221522 102 225 0.0 6.0 0.00 0.00 0.00 8 1005.8
20260509220801 102 213 2.0 13.0 0.00 0.00 0.00 9 1006.0
20260509220301 102 242 2.0 13.0 0.00 0.00 0.00 9 1006.0
20260509215800 102 260 1.0 11.0 0.00 0.00 0.00 9 1006.2
20260509215305 103 192 0.0 4.0 0.00 0.00 0.00 9 1006.2
20260509214800 103 219 1.0 10.0 0.00 0.00 0.00 8 1006.3
20260509214301 102 219 0.0 10.0 0.00 0.00 0.00 8 1006.4
20260509213802 102 221 0.0 4.0 0.00 0.00 0.00 9 1006.5
20260509213300 102 257 0.0 4.0 0.00 0.00 0.00 8 1006.5
20260509212801 102 264 0.0 1.0 0.00 0.00 0.00 9 1006.5
20260509212305 102 273 0.0 3.0 0.00 0.00 0.00 9 1006.6
20260509211803 102 247 0.0 6.0 0.00 0.00 0.00 8 1006.7
20260509211303 102 254 0.0 6.0 0.00 0.00 0.00 9 1006.7
20260509210801 102 260 1.0 12.0 0.00 0.00 0.00 9 1006.9
20260509210301 102 195 1.0 12.0 0.00 0.00 0.00 9 1006.9
20260509205801 101 219 1.0 6.0 0.00 0.00 0.00 9 1006.9
20260509205301 101 230 1.0 8.0 0.00 0.00 0.00 9 1007.1
20260509204806 101 214 0.0 8.0 0.00 0.00 0.00 9 1007.1
20260509204301 101 190 0.0 2.0 0.00 0.00 0.00 11 1007.2
20260509203801 101 198 0.0 5.0 0.00 0.00 0.00 10 1007.3
20260509203301 101 234 0.0 6.0 0.00 0.00 0.00 10 1007.3
20260509202802 101 255 0.0 6.0 0.00 0.00 0.00 11 1007.4
20260509202301 100 227 0.0 1.0 0.00 0.00 0.00 11 1007.4
20260509202023 100 263 0.0 2.0 0.00 0.00 0.00 11 1007.5
20260509201524 100 241 0.0 2.0 0.00 0.00 0.00 11 1007.7
20260509200801 100 220 0.0 2.0 0.00 0.00 0.00 11 1007.8
20260509200302 100 195 0.0 2.0 0.00 0.00 0.00 12 1008.0
20260509200023 99 224 0.0 6.0 0.00 0.00 0.00 12 1008.1
20260509195301 99 199 0.0 6.0 0.00 0.00 0.00 12 1008.1
20260509195253 99 215 0.0 1.0 0.00 0.00 0.00 13 1008.2
20260509194301 98 198 0.0 0.0 0.00 0.00 0.00 13 1008.3
20260509193801 98 247 0.0 0.0 0.00 0.00 0.00 13 1008.2
20260509193301 98 235 0.0 1.0 0.00 0.00 0.00 13 1008.3
20260509192801 98 246 0.0 1.0 0.00 0.00 0.00 13 1008.4
20260509192305 97 232 0.0 0.0 0.00 0.00 0.00 13 1008.5
20260509191802 97 246 0.0 0.0 0.00 0.00 0.00 13 1008.6
20260509191745 97 209 0.0 0.0 0.00 0.00 0.00 13 1008.6
20260509191022 97 173 0.0 1.0 0.00 0.00 0.00 14 1008.7
20260509190302 97 219 0.0 1.0 0.00 0.00 0.00 13 1008.7
20260509185803 97 207 0.0 0.0 0.00 0.00 0.00 13 1008.8
20260509185302 97 202 0.0 0.0 0.00 0.00 0.00 13 1008.8
20260509184801 97 111 0.0 0.0 0.00 0.00 0.00 13 1008.8
20260509184303 96 246 0.0 0.0 0.00 0.00 0.00 13 1008.9
20260509183800 96 216 0.0 1.0 0.00 0.00 0.00 14 1008.9
20260509183301 96 198 0.0 1.0 0.00 0.00 0.00 14 1009.1
20260509183037 95 173 0.0 1.0 0.00 0.00 0.00 15 1009.1
20260509182522 95 153 0.0 0.0 0.00 0.00 0.00 14 1009.2
20260509182246 95 165 0.0 0.0 0.00 0.00 0.00 14 1009.3
20260509181302 95 207 0.0 0.0 0.00 0.00 0.00 14 1009.4
20260509180801 95 215 0.0 1.0 0.00 0.00 0.00 14 1009.4
20260509180529 94 208 0.0 1.0 0.00 0.00 0.00 14 1009.5
20260509175801 94 121 0.0 3.0 0.00 0.00 0.00 15 1009.5
20260509175301 94 152 0.0 3.0 0.00 0.00 0.00 15 1009.5
20260509174802 94 252 0.0 0.0 0.00 0.00 0.00 15 1009.5
20260509174302 93 268 0.0 1.0 0.00 0.00 0.00 14 1009.6
20260509173801 94 196 0.0 2.0 0.00 0.00 0.00 14 1009.6